VOE3832 LEZG-LEMH

Flight info

Callsign VOE3832
Flight time 0h 53m
Altitude 34000
Route PONEN DCT SEROX DCT VILAR DCT KARES DCT BISES N870 BCN N725 DIPES/N0460F330 N727 SARGO
Aircraft A319/M-SDE3FGHIRWY/LB1

Departure

Time 2026-04-29 11:28
Airport Zaragoza Airport (LEZG)

Arrival

Time 2026-04-29 12:21
Airport Menorca Airport (LEMH)
Time Latitude Longitude Altitude Speed Heading
2026-04-29 11:13 41.66274 -1.00864 820 ft 0 kts 291°
2026-04-29 11:20 41.66274 -1.00871 820 ft 1 kts 265°
2026-04-29 11:20 41.66260 -1.00887 820 ft 2 kts 210°
2026-04-29 11:21 41.66249 -1.00896 821 ft 3 kts 210°
2026-04-29 11:21 41.66231 -1.00911 821 ft 3 kts 211°
2026-04-29 11:21 41.66213 -1.00926 821 ft 3 kts 214°
2026-04-29 11:21 41.66203 -1.00951 822 ft 3 kts 274°
2026-04-29 11:22 41.66222 -1.01002 821 ft 8 kts 280°
2026-04-29 11:22 41.66211 -1.01084 823 ft 9 kts 255°
2026-04-29 11:22 41.66193 -1.01176 825 ft 10 kts 255°
2026-04-29 11:22 41.66172 -1.01278 828 ft 11 kts 255°
2026-04-29 11:23 41.66151 -1.01385 831 ft 11 kts 255°
2026-04-29 11:23 41.66130 -1.01494 833 ft 12 kts 259°
2026-04-29 11:23 41.66162 -1.01605 834 ft 14 kts 300°
2026-04-29 11:23 41.66216 -1.01730 835 ft 16 kts 300°
2026-04-29 11:24 41.66279 -1.01876 835 ft 19 kts 300°
2026-04-29 11:24 41.66349 -1.02037 835 ft 21 kts 299°
2026-04-29 11:24 41.66426 -1.02213 835 ft 23 kts 300°
2026-04-29 11:24 41.66511 -1.02411 833 ft 25 kts 300°
2026-04-29 11:25 41.66603 -1.02622 834 ft 26 kts 300°
2026-04-29 11:25 41.66696 -1.02836 831 ft 22 kts 300°
2026-04-29 11:25 41.66752 -1.02964 831 ft 12 kts 300°
2026-04-29 11:25 41.66730 -1.03062 833 ft 11 kts 211°
2026-04-29 11:26 41.66605 -1.03156 838 ft 8 kts 199°
2026-04-29 11:26 41.66553 -1.03146 839 ft 7 kts 148°
2026-04-29 11:26 41.66523 -1.03100 841 ft 6 kts 121°
2026-04-29 11:27 41.66499 -1.03044 842 ft 11 kts 120°
2026-04-29 11:27 41.66345 -1.02685 845 ft 81 kts 121°
2026-04-29 11:27 41.65949 -1.01775 846 ft 145 kts 120°
2026-04-29 11:27 41.65436 -1.00541 1436 ft 150 kts 119°
2026-04-29 11:28 41.64904 -0.99409 2183 ft 147 kts 120°
2026-04-29 11:28 41.64372 -0.98249 2841 ft 151 kts 121°
2026-04-29 11:28 41.63813 -0.96986 3312 ft 167 kts 121°
2026-04-29 11:28 41.63199 -0.95592 3778 ft 184 kts 121°
2026-04-29 11:29 41.62513 -0.94029 4216 ft 206 kts 121°
2026-04-29 11:29 41.61762 -0.92318 4757 ft 224 kts 121°
2026-04-29 11:29 41.60941 -0.90448 5315 ft 243 kts 122°
2026-04-29 11:29 41.60039 -0.88463 5879 ft 260 kts 125°
2026-04-29 11:30 41.58944 -0.86525 6651 ft 267 kts 133°
2026-04-29 11:30 41.57675 -0.84715 7516 ft 271 kts 136°
2026-04-29 11:30 41.56366 -0.82931 8368 ft 276 kts 136°
2026-04-29 11:30 41.55019 -0.81112 9209 ft 280 kts 137°
2026-04-29 11:31 41.53638 -0.79251 10071 ft 284 kts 137°
2026-04-29 11:31 41.52227 -0.77354 10723 ft 296 kts 137°
2026-04-29 11:31 41.50754 -0.75376 11163 ft 314 kts 137°
2026-04-29 11:31 41.49157 -0.73234 11567 ft 332 kts 137°
2026-04-29 11:32 41.47502 -0.71011 11957 ft 349 kts 137°
2026-04-29 11:32 41.45769 -0.68681 12581 ft 358 kts 137°
2026-04-29 11:32 41.44027 -0.66337 13325 ft 361 kts 137°
2026-04-29 11:32 41.42250 -0.63949 14096 ft 364 kts 137°
2026-04-29 11:33 41.40472 -0.61565 14797 ft 367 kts 137°
2026-04-29 11:33 41.38664 -0.59145 15478 ft 371 kts 137°
2026-04-29 11:33 41.36933 -0.56614 16117 ft 378 kts 128°
2026-04-29 11:33 41.35739 -0.53470 16738 ft 389 kts 110°
2026-04-29 11:34 41.35284 -0.49878 17365 ft 397 kts 95°
2026-04-29 11:34 41.35253 -0.46211 18029 ft 401 kts 92°
2026-04-29 11:34 41.35252 -0.42490 18585 ft 405 kts 92°
2026-04-29 11:34 41.35246 -0.38775 19182 ft 408 kts 92°
2026-04-29 11:35 41.35233 -0.34964 19777 ft 412 kts 93°
2026-04-29 11:35 41.35211 -0.31196 20327 ft 414 kts 93°
2026-04-29 11:35 41.35184 -0.27339 20890 ft 417 kts 93°
2026-04-29 11:35 41.35154 -0.23474 21422 ft 420 kts 94°
2026-04-29 11:36 41.35121 -0.19600 21938 ft 423 kts 94°
2026-04-29 11:36 41.35085 -0.15727 22469 ft 425 kts 93°
2026-04-29 11:36 41.35047 -0.11759 22984 ft 428 kts 93°
2026-04-29 11:36 41.35008 -0.07843 23454 ft 430 kts 93°
2026-04-29 11:37 41.34967 -0.03852 23938 ft 433 kts 93°
2026-04-29 11:37 41.34924 0.00178 24418 ft 436 kts 93°
2026-04-29 11:37 41.34880 0.04201 24878 ft 438 kts 93°
2026-04-29 11:37 41.34834 0.08233 25311 ft 441 kts 93°
2026-04-29 11:38 41.34787 0.12302 25741 ft 443 kts 93°
2026-04-29 11:38 41.34737 0.16384 26154 ft 446 kts 93°
2026-04-29 11:38 41.34686 0.20518 26563 ft 448 kts 93°
2026-04-29 11:38 41.34633 0.24653 26958 ft 451 kts 93°
2026-04-29 11:39 41.34580 0.28800 27345 ft 453 kts 93°
2026-04-29 11:39 41.34523 0.32998 27723 ft 455 kts 93°
2026-04-29 11:39 41.34465 0.37208 28094 ft 457 kts 93°
2026-04-29 11:39 41.34405 0.41463 28458 ft 459 kts 93°
2026-04-29 11:40 41.34343 0.45675 28929 ft 458 kts 93°
2026-04-29 11:40 41.34280 0.49862 29454 ft 456 kts 93°
2026-04-29 11:40 41.34215 0.54073 29944 ft 454 kts 93°
2026-04-29 11:40 41.34150 0.58226 30413 ft 453 kts 93°
2026-04-29 11:41 41.34085 0.62390 30871 ft 452 kts 93°
2026-04-29 11:41 41.34018 0.66573 31322 ft 451 kts 94°
2026-04-29 11:41 41.33949 0.70720 31779 ft 449 kts 94°
2026-04-29 11:41 41.33878 0.74850 32229 ft 448 kts 94°
2026-04-29 11:42 41.33807 0.78956 32603 ft 448 kts 94°
2026-04-29 11:42 41.33733 0.83096 32916 ft 449 kts 94°
2026-04-29 11:42 41.33656 0.87252 33228 ft 450 kts 94°
2026-04-29 11:42 41.33578 0.91419 33516 ft 451 kts 94°
2026-04-29 11:43 41.33498 0.95566 33801 ft 452 kts 94°
2026-04-29 11:43 41.33418 0.99717 33987 ft 453 kts 94°
2026-04-29 11:43 41.33249 1.08086 33993 ft 453 kts 94°
2026-04-29 11:44 41.33079 1.16381 33993 ft 452 kts 94°
2026-04-29 11:44 41.32901 1.24750 33987 ft 452 kts 94°
2026-04-29 11:45 41.32721 1.33038 33983 ft 452 kts 94°
2026-04-29 11:45 41.32531 1.41393 33977 ft 452 kts 94°
2026-04-29 11:46 41.32337 1.49686 33974 ft 452 kts 94°
2026-04-29 11:46 41.32135 1.58065 33970 ft 452 kts 94°
2026-04-29 11:47 41.31925 1.66337 33966 ft 452 kts 94°
2026-04-29 11:47 41.31712 1.74686 33966 ft 451 kts 94°
2026-04-29 11:48 41.31495 1.82977 33969 ft 451 kts 94°
2026-04-29 11:48 41.31267 1.91298 33968 ft 451 kts 94°
2026-04-29 11:49 41.31036 1.99596 33967 ft 451 kts 94°
2026-04-29 11:49 41.30723 2.07910 33966 ft 451 kts 97°
2026-04-29 11:50 41.29834 2.16106 33966 ft 449 kts 103°
2026-04-29 11:50 41.28518 2.24161 33966 ft 448 kts 104°
2026-04-29 11:51 41.27179 2.32231 33963 ft 447 kts 104°
2026-04-29 11:51 41.25841 2.40270 33959 ft 447 kts 104°
2026-04-29 11:52 41.24500 2.48301 33956 ft 447 kts 103°
2026-04-29 11:52 41.23157 2.56320 33953 ft 448 kts 103°
2026-04-29 11:53 41.21795 2.64410 33951 ft 448 kts 103°
2026-04-29 11:53 41.20444 2.72403 33950 ft 447 kts 104°
2026-04-29 11:54 41.19082 2.80420 33951 ft 446 kts 104°
2026-04-29 11:54 41.17717 2.88421 33951 ft 446 kts 104°
2026-04-29 11:55 41.16343 2.96430 33951 ft 446 kts 104°
2026-04-29 11:55 41.14970 3.04410 33952 ft 445 kts 104°
2026-04-29 11:56 41.13582 3.12434 33953 ft 447 kts 104°
2026-04-29 11:56 41.12199 3.20403 33954 ft 447 kts 104°
2026-04-29 11:57 41.10799 3.28430 33958 ft 446 kts 104°
2026-04-29 11:57 41.09417 3.36316 33776 ft 440 kts 104°
2026-04-29 11:58 41.08721 3.40273 32957 ft 442 kts 103°
2026-04-29 11:58 41.08020 3.44246 31832 ft 450 kts 103°
2026-04-29 11:58 41.07300 3.48263 30831 ft 453 kts 105°
2026-04-29 11:58 41.05539 3.53260 29474 ft 454 kts 126°
2026-04-29 11:59 41.04182 3.55339 28809 ft 453 kts 136°
2026-04-29 11:59 41.01664 3.57830 27955 ft 450 kts 148°
2026-04-29 11:59 40.99020 3.59965 27188 ft 447 kts 149°
2026-04-29 11:59 40.96399 3.62061 26457 ft 443 kts 149°
2026-04-29 12:00 40.92921 3.64845 25505 ft 438 kts 148°
2026-04-29 12:00 40.90329 3.66925 24902 ft 432 kts 149°
2026-04-29 12:00 40.88616 3.68301 24523 ft 427 kts 149°
2026-04-29 12:00 40.86124 3.70305 23978 ft 421 kts 149°
2026-04-29 12:01 40.82829 3.72954 23263 ft 414 kts 149°
2026-04-29 12:01 40.80371 3.74928 22743 ft 409 kts 149°
2026-04-29 12:01 40.78761 3.76221 22399 ft 406 kts 149°
2026-04-29 12:01 40.75581 3.78774 21704 ft 400 kts 149°
2026-04-29 12:02 40.74017 3.80030 21353 ft 398 kts 149°
2026-04-29 12:02 40.71652 3.81927 20819 ft 394 kts 149°
2026-04-29 12:02 40.69329 3.83787 20293 ft 391 kts 149°
2026-04-29 12:02 40.67025 3.85632 19778 ft 388 kts 149°
2026-04-29 12:03 40.64741 3.87458 19270 ft 386 kts 149°
2026-04-29 12:03 40.62445 3.89292 18740 ft 383 kts 150°
2026-04-29 12:03 40.59428 3.91699 18054 ft 380 kts 150°
2026-04-29 12:03 40.57927 3.92895 17713 ft 379 kts 150°
2026-04-29 12:04 40.55693 3.94674 17206 ft 377 kts 150°
2026-04-29 12:04 40.53459 3.96452 16696 ft 375 kts 150°
2026-04-29 12:04 40.51207 3.98124 16172 ft 372 kts 155°
2026-04-29 12:04 40.48827 3.99485 15700 ft 369 kts 161°
2026-04-29 12:05 40.46387 4.00498 15676 ft 371 kts 165°
2026-04-29 12:05 40.43887 4.01401 15712 ft 372 kts 166°
2026-04-29 12:05 40.41424 4.02272 15743 ft 372 kts 166°
2026-04-29 12:05 40.38083 4.03451 15768 ft 372 kts 166°
2026-04-29 12:06 40.36427 4.04035 15798 ft 372 kts 166°
2026-04-29 12:06 40.33910 4.04926 15811 ft 372 kts 166°
2026-04-29 12:06 40.31400 4.05814 15821 ft 373 kts 166°
2026-04-29 12:06 40.28914 4.06694 15868 ft 373 kts 166°
2026-04-29 12:07 40.26394 4.07585 15902 ft 373 kts 166°
2026-04-29 12:07 40.23048 4.08768 15344 ft 375 kts 166°
2026-04-29 12:07 40.21393 4.09352 14966 ft 375 kts 166°
2026-04-29 12:07 40.18877 4.10241 14407 ft 373 kts 166°
2026-04-29 12:08 40.16385 4.11120 13860 ft 371 kts 166°
2026-04-29 12:08 40.13127 4.12268 13510 ft 355 kts 166°
2026-04-29 12:08 40.10772 4.13098 13320 ft 343 kts 166°
2026-04-29 12:08 40.09237 4.13576 13060 ft 339 kts 172°
2026-04-29 12:09 40.06933 4.13490 12501 ft 336 kts 194°
2026-04-29 12:09 40.04233 4.11604 11909 ft 328 kts 224°
2026-04-29 12:09 40.03278 4.10084 11684 ft 324 kts 236°
2026-04-29 12:09 40.02069 4.06572 11145 ft 321 kts 250°
2026-04-29 12:10 40.01236 4.03898 10684 ft 319 kts 243°
2026-04-29 12:10 40.00502 4.02238 10400 ft 316 kts 235°
2026-04-29 12:10 39.99144 4.00034 10182 ft 305 kts 226°
2026-04-29 12:10 39.97598 3.98219 10067 ft 292 kts 218°
2026-04-29 12:11 39.95407 3.96359 9816 ft 281 kts 208°
2026-04-29 12:11 39.94231 3.95604 9561 ft 280 kts 204°
2026-04-29 12:11 39.92410 3.94700 9193 ft 279 kts 198°
2026-04-29 12:11 39.89924 3.93888 8721 ft 277 kts 191°
2026-04-29 12:12 39.88667 3.93644 8503 ft 275 kts 187°
2026-04-29 12:12 39.86137 3.93458 8074 ft 272 kts 180°
2026-04-29 12:12 39.84875 3.93513 7855 ft 271 kts 176°
2026-04-29 12:12 39.83013 3.93776 7523 ft 269 kts 171°
2026-04-29 12:13 39.80583 3.94452 7093 ft 267 kts 165°
2026-04-29 12:13 39.79399 3.94925 6868 ft 266 kts 161°
2026-04-29 12:13 39.77117 3.96124 6429 ft 264 kts 154°
2026-04-29 12:13 39.75510 3.97218 6106 ft 262 kts 149°
2026-04-29 12:14 39.73967 3.98495 5779 ft 261 kts 144°
2026-04-29 12:14 39.73006 3.99420 5565 ft 260 kts 142°
2026-04-29 12:14 39.71200 4.01481 5130 ft 259 kts 135°
2026-04-29 12:14 39.69973 4.03178 4803 ft 258 kts 131°
2026-04-29 12:15 39.68867 4.04984 4481 ft 257 kts 126°
2026-04-29 12:15 39.67871 4.06919 4155 ft 255 kts 121°
2026-04-29 12:15 39.67014 4.08921 3836 ft 254 kts 117°
2026-04-29 12:15 39.66293 4.10981 3542 ft 251 kts 112°
2026-04-29 12:16 39.65713 4.13066 3505 ft 237 kts 108°
2026-04-29 12:16 39.65371 4.15076 3471 ft 223 kts 89°
2026-04-29 12:16 39.65804 4.16924 3427 ft 214 kts 55°
2026-04-29 12:16 39.66961 4.18085 3396 ft 212 kts 20°
2026-04-29 12:17 39.68361 4.18426 3375 ft 201 kts
2026-04-29 12:17 39.69738 4.18572 3202 ft 197 kts
2026-04-29 12:17 39.71108 4.18763 2979 ft 194 kts 10°
2026-04-29 12:17 39.72418 4.19000 2768 ft 188 kts 11°
2026-04-29 12:18 39.73696 4.19261 2502 ft 185 kts 12°
2026-04-29 12:18 39.74955 4.19525 2241 ft 182 kts 13°
2026-04-29 12:18 39.76181 4.19781 1991 ft 173 kts 13°
2026-04-29 12:18 39.76953 4.19939 1830 ft 165 kts 13°
2026-04-29 12:19 39.78374 4.20230 1568 ft 144 kts 13°
2026-04-29 12:19 39.79321 4.20426 1375 ft 130 kts 13°
2026-04-29 12:19 39.80201 4.20610 1220 ft 127 kts 13°
2026-04-29 12:19 39.81078 4.20792 1059 ft 128 kts 14°
2026-04-29 12:20 39.81970 4.20976 899 ft 130 kts 14°
2026-04-29 12:20 39.82853 4.21157 741 ft 127 kts 13°
2026-04-29 12:20 39.83728 4.21339 568 ft 128 kts 13°
2026-04-29 12:20 39.84625 4.21509 389 ft 131 kts 14°
2026-04-29 12:21 39.85513 4.21702 312 ft 126 kts 14°
2026-04-29 12:21 39.86373 4.21889 288 ft 116 kts 12°
2026-04-29 12:21 39.86996 4.22020 296 ft 67 kts
2026-04-29 12:21 39.87230 4.22067 297 ft 34 kts
2026-04-29 12:22 39.87392 4.22177 300 ft 18 kts 69°
2026-04-29 12:22 39.87364 4.22323 297 ft 17 kts 160°
2026-04-29 12:22 39.87239 4.22303 295 ft 18 kts 188°
2026-04-29 12:22 39.87103 4.22276 293 ft 20 kts 188°
2026-04-29 12:23 39.86978 4.22250 291 ft 13 kts 188°
2026-04-29 12:23 39.86923 4.22321 288 ft 14 kts 98°
2026-04-29 12:23 39.86846 4.22394 284 ft 17 kts 188°
2026-04-29 12:23 39.86774 4.22380 283 ft 10 kts 188°
2026-04-29 12:24 39.86717 4.22368 281 ft 13 kts 189°
2026-04-29 12:24 39.86595 4.22343 279 ft 11 kts 189°
2026-04-29 12:24 39.86544 4.22344 278 ft 6 kts 134°
2026-04-29 12:24 39.86531 4.22409 276 ft 8 kts 98°
2026-04-29 12:25 39.86529 4.22429 276 ft 0 kts 99°